Middlesboro, KY

4:25 AM CDT on August 18, 2017 (GMT -0500)
Middlesboro

Weather History for K1A6 - February, 2014

Change the Weather History Date:

Tuesday, February 18, 2014

  Actual Average (KLOZ) Record (KLOZ)
Temperature  
Mean Temperature 43 °F -  
Max Temperature 59 °F 51 °F 71 °F (1986)
Min Temperature 27 °F 29 °F -4 °F (1958)
Degree Days  
Heating Degree Days 22    
Moisture  
Dew Point 30 °F    
Average Humidity 65    
Maximum Humidity 100    
Minimum Humidity 24    
Precipitation  
Precipitation 0.05 in - - ()
Sea Level Pressure  
Sea Level Pressure 30.13 in    
Wind  
Wind Speed 2 mph (South)    
Max Wind Speed 9 mph    
Max Gust Speed -    
Visibility 9 miles    
Events Thunderstorm    
Averages and records for this station are not official NWS values.
T = Trace of Precipitation, MM = Missing Value Source: NWS Daily Summary

Daily Weather History Graph

Daily Weather History Graph

Search for Another Location

Airport or City:

Trip Planner

Search our weather history database for the weather conditions in past years. The results will help you decide how hot, cold, wet, or windy it might be!

Date:

Astronomy

Feb. 18, 2014 Rise Set
Actual Time 6:19 AM CST 5:18 PM CST
Civil Twilight 5:53 AM CST 5:45 PM CST
Nautical Twilight 5:23 AM CST 6:15 PM CST
Astronomical Twilight 4:53 AM CST 6:45 PM CST
Moon 9:03 PM CST 7:58 AM CST
Length of Visible Light 11h 51m
Length of Day
10h 59m
Waning Gibbous, 87% of the Moon is Illuminated
Feb 18
Waning Gibbous
Feb 22
Last Quarter
Mar 1
New
Mar 8
First Quarter
Mar 16
Full

Hourly Weather History & Observations

Time (CST) Temp. Windchill Dew Point Humidity Pressure Visibility Wind Dir Wind Speed Gust Speed Precip Events Conditions
12:15 AM 43.9 °F 42.3 °F 33.3 °F 66% 30.13 in 10.0 mi WNW 3.5 mph - N/A   Scattered Clouds
12:35 AM 42.4 °F - 33.1 °F 69% 30.14 in 10.0 mi Calm Calm - N/A   Scattered Clouds
12:55 AM 43.0 °F - 32.9 °F 68% 30.14 in 10.0 mi Calm Calm - N/A   Mostly Cloudy
1:15 AM 42.1 °F - 32.7 °F 69% 30.14 in 10.0 mi Calm Calm - N/A   Scattered Clouds
1:35 AM 39.6 °F - 32.4 °F 75% 30.14 in 10.0 mi Calm Calm - N/A   Clear
1:55 AM 36.3 °F - 32.5 °F 86% 30.14 in 10.0 mi Calm Calm - N/A   Clear
2:15 AM 35.1 °F - 32.4 °F 90% 30.14 in 10.0 mi Calm Calm - N/A   Clear
2:35 AM 33.4 °F - 32.0 °F 94% 30.14 in 10.0 mi Calm Calm - N/A   Clear
2:55 AM 32.2 °F - 32.0 °F 99% 30.15 in 10.0 mi Calm Calm - N/A   Clear
3:15 AM 31.5 °F - 30.6 °F 96% 30.16 in 10.0 mi Calm Calm - N/A   Clear
3:35 AM 30.4 °F - 29.8 °F 98% 30.17 in 7.0 mi Calm Calm - N/A   Clear
3:55 AM 30.4 °F - 30.2 °F 99% 30.17 in 7.0 mi Calm Calm - N/A   Clear
4:15 AM 30.0 °F - 30.0 °F 100% 30.17 in 7.0 mi Calm Calm - N/A   Clear
4:35 AM 28.8 °F - 28.6 °F 99% 30.19 in 7.0 mi Calm Calm - N/A   Clear
4:55 AM 29.3 °F - 29.3 °F 100% 30.20 in 7.0 mi Calm Calm - N/A   Clear
5:15 AM 28.4 °F - 28.4 °F 100% 30.20 in 5.0 mi Calm Calm - N/A   Clear
5:35 AM 28.2 °F - 28.2 °F 100% 30.21 in 5.0 mi Calm Calm - N/A   Clear
5:55 AM 28.4 °F - 28.4 °F 100% 30.22 in 7.0 mi Calm Calm - N/A   Clear
6:15 AM 27.9 °F - 27.9 °F 100% 30.22 in 5.0 mi Calm Calm - N/A   Clear
6:35 AM 28.0 °F - 28.0 °F 100% 30.23 in 5.0 mi Calm Calm - N/A   Clear
6:55 AM 27.5 °F - 27.5 °F 100% 30.24 in 5.0 mi Calm Calm - N/A   Clear
7:15 AM 28.8 °F - 28.8 °F 100% 30.24 in 7.0 mi Calm Calm - N/A   Clear
7:35 AM 30.9 °F - 30.9 °F 100% 30.25 in 10.0 mi Calm Calm - N/A   Clear
7:55 AM 32.0 °F - 31.8 °F 99% 30.24 in 10.0 mi Calm Calm - N/A   Clear
8:15 AM 33.8 °F - 32.0 °F 93% 30.24 in 10.0 mi Calm Calm - N/A   Clear
8:35 AM 36.9 °F - 32.2 °F 83% 30.24 in 10.0 mi Calm Calm - N/A   Clear
8:55 AM 38.7 °F - 33.1 °F 80% 30.25 in 10.0 mi Calm Calm - N/A   Clear
9:15 AM 41.2 °F - 34.2 °F 76% 30.24 in 10.0 mi Calm Calm - N/A   Clear
9:35 AM 43.9 °F - 35.4 °F 72% 30.24 in 10.0 mi Calm Calm - N/A   Clear
9:55 AM 47.5 °F - 34.2 °F 60% 30.24 in 10.0 mi Calm Calm - N/A   Clear
10:15 AM 49.8 °F - 32.0 °F 50% 30.23 in 10.0 mi ESE 3.5 mph - N/A   Clear
10:35 AM 51.1 °F - 31.6 °F 47% 30.21 in 10.0 mi East 3.5 mph - N/A   Clear
10:55 AM 51.8 °F - 29.1 °F 42% 30.21 in 10.0 mi East 4.6 mph - N/A   Clear
11:15 AM 53.4 °F - 30.4 °F 41% 30.20 in 10.0 mi East 3.5 mph - N/A   Clear
11:35 AM 54.0 °F - 29.1 °F 39% 30.20 in 10.0 mi SE 3.5 mph - N/A   Clear
11:55 AM 55.4 °F - 28.4 °F 36% 30.18 in 10.0 mi SE 3.5 mph - N/A   Clear
12:15 PM 55.8 °F - 27.1 °F 33% 30.17 in 10.0 mi SSW 3.5 mph - N/A   Clear
12:35 PM 56.8 °F - 28.0 °F 33% 30.15 in 10.0 mi South 6.9 mph - N/A   Clear
12:55 PM 57.2 °F - 26.8 °F 31% 30.14 in 10.0 mi South 5.8 mph - N/A   Clear
1:15 PM 57.0 °F - 26.6 °F 31% 30.13 in 10.0 mi SSW 6.9 mph - N/A   Clear
1:35 PM 57.6 °F - 25.0 °F 29% 30.12 in 10.0 mi SSW 6.9 mph - N/A   Clear
1:55 PM 58.3 °F - 21.6 °F 24% 30.11 in 10.0 mi South 8.1 mph - N/A   Clear
2:15 PM 59.0 °F - 21.7 °F 24% 30.10 in 10.0 mi SSW 9.2 mph - N/A   Clear
2:35 PM 58.3 °F - 22.1 °F 25% 30.10 in 10.0 mi SSW 6.9 mph - N/A   Clear
2:55 PM 58.5 °F - 24.6 °F 27% 30.10 in 10.0 mi South 6.9 mph - N/A   Clear
3:15 PM 58.3 °F - 26.4 °F 30% 30.09 in 10.0 mi SSW 4.6 mph - N/A   Clear
3:35 PM 58.1 °F - 27.1 °F 31% 30.08 in 10.0 mi South 6.9 mph - N/A   Clear
3:55 PM 57.4 °F - 26.8 °F 31% 30.08 in 10.0 mi South 6.9 mph - N/A   Clear
4:15 PM 57.7 °F - 26.2 °F 30% 30.07 in 10.0 mi South 3.5 mph - N/A   Clear
4:35 PM 57.4 °F - 23.2 °F 27% 30.06 in 10.0 mi SSW 5.8 mph - N/A   Clear
4:55 PM 56.5 °F - 22.8 °F 27% 30.05 in 10.0 mi South 3.5 mph - N/A   Clear
5:15 PM 55.4 °F - 23.0 °F 29% 30.05 in 10.0 mi SSE 4.6 mph - N/A   Clear
5:35 PM 53.6 °F - 23.5 °F 31% 30.05 in 10.0 mi Calm Calm - N/A   Clear
5:55 PM 48.9 °F - 27.5 °F 43% 30.04 in 10.0 mi South 3.5 mph - N/A   Clear
6:15 PM 48.9 °F - 28.4 °F 45% 30.05 in 10.0 mi Calm Calm - N/A   Clear
6:35 PM 44.1 °F - 31.1 °F 60% 30.04 in 10.0 mi Calm Calm - N/A   Clear
6:55 PM 42.8 °F - 31.6 °F 65% 30.03 in 10.0 mi Calm Calm - N/A   Clear
7:15 PM 42.3 °F - 32.0 °F 67% 30.02 in 10.0 mi Calm Calm - N/A   Clear
7:35 PM 42.1 °F - 32.0 °F 67% 30.02 in 10.0 mi Calm Calm - N/A   Clear
7:55 PM 41.0 °F - 32.0 °F 70% 30.02 in 10.0 mi Calm Calm - N/A   Clear
8:15 PM 40.6 °F - 32.0 °F 71% 30.01 in 10.0 mi Calm Calm - N/A   Clear
8:35 PM 40.6 °F - 32.0 °F 71% 30.02 in 10.0 mi Calm Calm - N/A   Scattered Clouds
8:55 PM 40.3 °F - 32.9 °F 75% 30.01 in 10.0 mi Calm Calm - N/A   Mostly Cloudy
9:15 PM 40.3 °F - 34.5 °F 80% 30.00 in 10.0 mi Calm Calm - N/A   Mostly Cloudy
9:35 PM 41.0 °F 38.0 °F 32.5 °F 72% 29.99 in 10.0 mi NE 4.6 mph - N/A   Scattered Clouds
9:55 PM 41.0 °F - 32.2 °F 71% 29.99 in 10.0 mi Calm Calm - N/A   Mostly Cloudy
10:15 PM 41.0 °F - 33.1 °F 73% 29.99 in 10.0 mi Calm Calm - N/A   Mostly Cloudy
10:35 PM 42.1 °F - 32.9 °F 70% 29.99 in 10.0 mi Calm Calm - N/A   Overcast
10:55 PM 41.9 °F - 33.6 °F 72% 29.98 in 10.0 mi Calm Calm - N/A   Overcast
11:55 PM 42.1 °F 40.2 °F 33.8 °F 72% 29.94 in 10.0 mi North 3.5 mph - N/A Thunderstorm Overcast